GW0175 Weather Reports


time (UTC)temp
C
wind
direction
speed
KPH
gust
KPH
rain 1hr
cm
rain 24hr
cm
rain mn
cm
humidity
%
barometer
mb
20260904032545 27 154 1.6 4.8 0.00 0.00 0.00 46 1011.1
20260904032044 27 169 3.2 3.2 0.00 0.00 0.00 46 1011.2
20260904031543 26 106 0.0 0.0 0.00 0.00 0.00 47 1011.1
20260904031040 27 66 0.0 3.2 0.00 0.00 0.00 45 1011.0
20260904030535 28 180 0.0 0.0 0.00 0.00 0.00 44 1011.0
20260904030031 27 246 0.0 0.0 0.00 0.00 0.00 45 1010.8
20260904025526 27 246 0.0 0.0 0.00 0.00 0.00 47 1010.7
20260904025026 27 255 0.0 3.2 0.00 0.00 0.00 48 1010.6
20260904024522 28 246 0.0 4.8 0.00 0.00 0.00 48 1010.8
20260904024017 28 173 0.0 1.6 0.00 0.00 0.00 45 1010.4
20260904023514 28 203 0.0 0.0 0.00 0.00 0.00 44 1010.6
20260904023009 28 203 1.6 1.6 0.00 0.00 0.00 43 1010.2
20260904022504 28 188 0.0 1.6 0.00 0.00 0.00 46 1010.2
20260904022001 28 270 1.6 6.4 0.00 0.00 0.00 46 1010.0
20260904021456 30 165 1.6 1.6 0.00 0.00 0.00 38 1010.0
20260904020956 30 74 0.0 0.0 0.00 0.00 0.00 38 1009.9
20260904020452 30 74 0.0 0.0 0.00 0.00 0.00 38 1009.8
20260904015950 30 74 0.0 0.0 0.00 0.00 0.00 37 1009.6
20260904015446 30 74 0.0 0.0 0.00 0.00 0.00 37 1009.6
20260904014944 30 66 0.0 3.2 0.00 0.00 0.00 37 1009.5
20260904014439 30 35 0.0 0.0 0.00 0.00 0.00 36 1009.6
20260904013935 30 74 0.0 3.2 0.00 0.00 0.00 36 1009.6
20260904013431 31 54 0.0 3.2 0.00 0.00 0.00 36 1009.5
20260904012927 30 45 3.2 4.8 0.00 0.00 0.00 36 1009.5
20260904012426 31 49 3.2 4.8 0.00 0.00 0.00 35 1009.5
20260904011921 31 0 6.4 8.0 0.00 0.00 0.00 34 1009.6
20260904011416 32 353 4.8 4.8 0.00 0.00 0.00 34 1009.6
20260904010911 32 348 1.6 8.0 0.00 0.00 0.00 34 1009.5
20260904010408 32 346 4.8 6.4 0.00 0.00 0.00 33 1009.4
20260904005902 32 270 0.0 3.2 0.00 0.00 0.00 33 1009.4
20260904005358 32 251 0.0 3.2 0.00 0.00 0.00 32 1009.4
20260904004852 33 77 0.0 3.2 0.00 0.00 0.00 32 1009.2
20260904004349 33 276 0.0 3.2 0.00 0.00 0.00 32 1009.4
20260904003849 33 258 3.2 8.0 0.00 0.00 0.00 32 1009.5
20260904003345 34 254 0.0 3.2 0.00 0.00 0.00 30 1009.5
20260904002840 34 304 0.0 3.2 0.00 0.00 0.00 29 1009.2
20260904002337 35 345 1.6 1.6 0.00 0.00 0.00 29 1009.2
20260904001835 35 117 0.0 3.2 0.00 0.00 0.00 28 1009.1
20260904001331 35 0 0.0 1.6 0.00 0.00 0.00 27 1009.4
20260904000826 35 350 0.0 0.0 0.00 0.00 0.00 28 1009.0
20260904000325 35 349 4.8 9.7 0.00 0.00 0.00 28 1009.2
20260903235820 35 0 6.4 9.7 0.00 0.00 0.00 28 1008.9
20260903235316 35 3 9.7 14.5 0.00 0.00 0.00 27 1009.0
20260903234815 36 0 3.2 8.0 0.00 0.00 0.00 26 1009.1
20260903234312 36 0 6.4 12.9 0.00 0.00 0.00 26 1008.7
20260903233808 37 270 3.2 4.8 0.00 0.00 0.00 26 1008.9
20260903233304 35 352 6.4 11.3 0.00 0.00 0.00 28 1008.9
20260903232803 35 0 8.0 14.5 0.00 0.00 0.00 27 1009.1
20260903232259 35 348 0.0 14.5 0.00 0.00 0.00 28 1009.0
20260903231757 35 343 9.7 17.7 0.00 0.00 0.00 27 1009.2
20260903231253 35 351 6.4 17.7 0.00 0.00 0.00 27 1008.8
20260903230748 35 350 6.4 22.5 0.00 0.00 0.00 27 1008.9
20260903230248 35 352 11.3 20.9 0.00 0.00 0.00 28 1008.9
20260903225744 36 353 9.7 17.7 0.00 0.00 0.00 27 1009.1
20260903225241 35 348 9.7 27.4 0.00 0.00 0.00 28 1009.0
20260903224737 37 294 0.0 8.0 0.00 0.00 0.00 26 1008.9
20260903224233 38 4 0.0 6.4 0.00 0.00 0.00 23 1008.8
20260903223728 38 79 0.0 4.8 0.00 0.00 0.00 22 1009.1
20260903223226 38 301 3.2 8.0 0.00 0.00 0.00 25 1008.9
20260903222721 37 74 1.6 4.8 0.00 0.00 0.00 27 1008.9
20260903222220 35 294 0.0 6.4 0.00 0.00 0.00 26 1009.1
20260903221715 34 0 0.0 4.8 0.00 0.00 0.00 30 1009.1
20260903221214 33 16 0.0 6.4 0.00 0.00 0.00 35 1009.4
20260903220712 33 0 0.0 0.0 0.00 0.00 0.00 33 1009.2
20260903220208 33 270 0.0 8.0 0.00 0.00 0.00 31 1009.4
20260903215706 33 298 4.8 8.0 0.00 0.00 0.00 31 1009.4
20260903215202 32 295 3.2 6.4 0.00 0.00 0.00 32 1009.5
20260903214700 32 300 0.0 4.8 0.00 0.00 0.00 37 1009.5
20260903214156 32 270 0.0 4.8 0.00 0.00 0.00 38 1009.7
20260903213650 31 41 0.0 8.0 0.00 0.00 0.00 40 1009.5
20260903213147 32 279 3.2 19.3 0.00 0.00 0.00 38 1009.6
20260903212642 31 197 14.5 17.7 0.00 0.00 0.00 39 1009.8
20260903212138 31 204 14.5 19.3 0.05 0.00 0.00 38 1010.0
20260903211637 29 200 14.5 20.9 0.05 0.00 0.00 49 1010.0
20260903211135 29 195 9.7 24.1 0.00 0.00 0.00 50 1009.9
20260903210630 31 186 11.3 24.1 0.00 0.00 0.00 36 1009.9
20260903210125 30 177 12.9 20.9 0.00 0.00 0.00 48 1010.0
20260903205619 33 240 4.8 19.3 0.00 0.00 0.00 39 1009.9
20260903205113 35 245 9.7 19.3 0.00 0.00 0.00 30 1009.8
20260903204609 35 242 8.0 19.3 0.00 0.00 0.00 28 1009.9
20260903204104 36 239 14.5 24.1 0.00 0.00 0.00 27 1009.9
20260903203559 37 289 0.0 4.8 0.00 0.00 0.00 24 1009.8
20260903203054 37 66 3.2 6.4 0.00 0.00 0.00 24 1009.7
20260903202550 37 352 3.2 6.4 0.00 0.00 0.00 23 1009.7
20260903202045 37 300 0.0 3.2 0.00 0.00 0.00 24 1009.7
20260903201539 37 157 3.2 3.2 0.00 0.00 0.00 23 1009.8
20260903201038 37 345 0.0 3.2 0.00 0.00 0.00 23 1010.0
20260903200533 37 275 0.0 6.4 0.00 0.00 0.00 24 1010.1
20260903200029 37 195 1.6 9.7 0.00 0.00 0.00 24 1010.0
20260903195525 38 34 3.2 3.2 0.00 0.00 0.00 23 1009.9
20260903195020 38 221 9.7 9.7 0.00 0.00 0.00 24 1009.9
20260903194515 37 228 11.3 12.9 0.00 0.00 0.00 25 1010.0
20260903194010 36 206 4.8 8.0 0.00 0.00 0.00 26 1010.2
20260903193507 36 188 3.2 8.0 0.00 0.00 0.00 26 1010.3
20260903193001 37 206 3.2 8.0 0.00 0.00 0.00 25 1010.2
20260903192458 38 256 4.8 14.5 0.00 0.00 0.00 24 1010.3
20260903191953 37 139 0.0 8.0 0.00 0.00 0.00 24 1010.3
20260903191449 37 295 4.8 9.7 0.00 0.00 0.00 25 1010.7
20260903190948 37 180 3.2 4.8 0.00 0.00 0.00 25 1010.6
20260903190443 37 157 4.8 8.0 0.00 0.00 0.00 24 1010.6
20260903185943 37 23 4.8 6.4 0.00 0.00 0.00 24 1010.9
20260903185439 37 180 0.0 8.0 0.00 0.00 0.00 24 1010.9
20260903184938 37 158 3.2 8.0 0.00 0.00 0.00 24 1011.2
20260903184436 37 174 4.8 6.4 0.00 0.00 0.00 24 1011.1
20260903183930 36 165 6.4 9.7 0.00 0.00 0.00 25 1011.2
20260903183425 36 155 4.8 8.0 0.00 0.00 0.00 25 1011.4
20260903182924 36 176 3.2 6.4 0.00 0.00 0.00 25 1011.4
20260903182423 36 233 0.0 8.0 0.00 0.00 0.00 26 1011.9
20260903181918 36 192 3.2 4.8 0.00 0.00 0.00 26 1011.9
20260903181413 37 178 4.8 9.7 0.00 0.00 0.00 25 1011.5
20260903180912 37 237 9.7 9.7 0.00 0.00 0.00 25 1011.9
20260903180407 36 345 1.6 3.2 0.00 0.00 0.00 25 1012.1
20260903175906 36 317 9.7 9.7 0.00 0.00 0.00 25 1012.0
20260903175401 37 281 3.2 11.3 0.00 0.00 0.00 25 1012.1
20260903174855 36 12 6.4 8.0 0.00 0.00 0.00 26 1012.1
20260903174351 36 196 3.2 6.4 0.00 0.00 0.00 26 1012.2
20260903173844 36 86 3.2 11.3 0.00 0.00 0.00 26 1012.0
20260903173340 37 26 3.2 4.8 0.00 0.00 0.00 26 1012.4
20260903172836 36 187 0.0 8.0 0.00 0.00 0.00 26 1012.2
20260903172330 37 139 4.8 11.3 0.00 0.00 0.00 26 1012.3
20260903171826 36 276 3.2 9.7 0.00 0.00 0.00 26 1012.4
20260903171321 37 117 0.0 11.3 0.00 0.00 0.00 27 1012.3
20260903170820 37 240 0.0 4.8 0.00 0.00 0.00 26 1012.4
20260903170316 37 353 0.0 6.4 0.00 0.00 0.00 26 1012.4
20260903165814 36 6 6.4 8.0 0.00 0.00 0.00 27 1012.3
20260903165308 36 186 1.6 6.4 0.00 0.00 0.00 28 1012.4
20260903164803 36 105 1.6 14.5 0.00 0.00 0.00 28 1012.5
20260903164259 36 297 6.4 6.4 0.00 0.00 0.00 27 1012.5
20260903163757 35 246 0.0 9.7 0.00 0.00 0.00 29 1012.6
20260903163254 35 345 0.0 4.8 0.00 0.00 0.00 30 1012.6
20260903162751 35 288 4.8 9.7 0.00 0.00 0.00 29 1012.6
20260903162246 35 229 4.8 8.0 0.00 0.00 0.00 31 1012.6
20260903161742 35 270 0.0 4.8 0.00 0.00 0.00 31 1012.7
20260903161237 33 221 4.8 4.8 0.00 0.00 0.00 32 1012.6
20260903160733 33 331 3.2 8.0 0.00 0.00 0.00 33 1012.5
20260903160231 33 0 0.0 4.8 0.00 0.00 0.00 33 1012.6
20260903155730 33 276 3.2 4.8 0.00 0.00 0.00 33 1012.6
20260903155225 33 156 0.0 3.2 0.00 0.00 0.00 33 1012.7
20260903154721 32 192 3.2 6.4 0.00 0.00 0.00 36 1012.9
20260903154217 32 206 4.8 6.4 0.00 0.00 0.00 36 1012.6
20260903153712 32 180 1.6 4.8 0.00 0.00 0.00 37 1012.7
20260903153208 31 160 1.6 4.8 0.00 0.00 0.00 37 1012.7
20260903152704 31 156 3.2 3.2 0.00 0.00 0.00 38 1012.6
20260903152200 31 157 0.0 3.2 0.00 0.00 0.00 39 1012.7
20260903151659 29 152 0.0 3.2 0.00 0.00 0.00 41 1012.7
20260903151154 28 188 0.0 3.2 0.00 0.00 0.00 43 1012.9
20260903150654 28 177 3.2 3.2 0.00 0.00 0.00 44 1012.9
20260903150150 28 151 3.2 4.8 0.00 0.00 0.00 45 1012.6
20260903145644 28 176 3.2 3.2 0.00 0.00 0.00 43 1012.6
20260903145139 29 144 3.2 3.2 0.00 0.00 0.00 43 1013.0
20260903144637 29 164 3.2 3.2 0.00 0.00 0.00 41 1012.6
20260903144134 30 199 4.8 4.8 0.00 0.00 0.00 40 1012.9
20260903143630 30 114 1.6 3.2 0.00 0.00 0.00 41 1013.1
20260903143125 28 180 0.0 3.2 0.00 0.00 0.00 43 1013.0
20260903142621 29 157 0.0 3.2 0.00 0.00 0.00 42 1013.0
20260903142117 29 75 0.0 3.2 0.00 0.00 0.00 42 1013.1
20260903141613 28 81 0.0 0.0 0.00 0.00 0.00 44 1013.1
20260903141108 27 77 0.0 1.6 0.00 0.00 0.00 45 1013.0
20260903140604 26 69 0.0 1.6 0.00 0.00 0.00 47 1012.9
20260903140059 27 8 0.0 0.0 0.00 0.00 0.00 45 1013.1
20260903135555 26 0 0.0 1.6 0.00 0.00 0.00 46 1013.1
20260903135055 25 32 3.2 4.8 0.00 0.00 0.00 49 1013.0
20260903134554 25 32 0.0 3.2 0.00 0.00 0.00 48 1012.9
20260903134050 25 32 0.0 4.8 0.00 0.00 0.00 49 1013.1
20260903133547 25 14 1.6 3.2 0.00 0.00 0.00 51 1012.9
20260903133043 24 23 3.2 3.2 0.00 0.00 0.00 53 1012.9
20260903132538 23 343 3.2 4.8 0.00 0.00 0.00 54 1012.7
20260903132033 23 90 0.0 0.0 0.00 0.00 0.00 53 1012.7
20260903131532 23 90 0.0 3.2 0.00 0.00 0.00 53 1012.7
20260903131032 22 8 0.0 0.0 0.00 0.00 0.00 55 1012.6
20260903130526 21 26 0.0 3.2 0.00 0.00 0.00 56 1012.6
20260903130021 21 60 1.6 3.2 0.00 0.00 0.00 56 1012.6
20260903125519 21 8 0.0 0.0 0.00 0.00 0.00 56 1012.5
20260903125015 21 8 0.0 1.6 0.00 0.00 0.00 57 1012.4
20260903124509 21 344 0.0 3.2 0.00 0.00 0.00 59 1012.5
20260903124009 21 337 0.0 3.2 0.00 0.00 0.00 58 1012.9
20260903123504 22 168 0.0 0.0 0.00 0.00 0.00 58 1012.3
20260903123001 22 168 0.0 1.6 0.00 0.00 0.00 58 1012.4
20260903122456 21 334 0.0 1.6 0.00 0.00 0.00 57 1012.5
20260903121956 22 106 0.0 1.6 0.00 0.00 0.00 58 1012.3
20260903121450 22 5 0.0 0.0 0.00 0.00 0.00 59 1012.4
20260903120947 22 5 0.0 0.0 0.00 0.00 0.00 58 1012.4
20260903120445 22 5 0.0 0.0 0.00 0.00 0.00 58 1012.2
20260903115943 22 21 3.2 3.2 0.00 0.00 0.00 57 1012.2
20260903115438 22 180 0.0 0.0 0.00 0.00 0.00 57 1012.2
20260903114933 22 180 0.0 0.0 0.00 0.00 0.00 57 1012.1
20260903114428 22 180 0.0 0.0 0.00 0.00 0.00 56 1011.9
20260903113924 22 180 0.0 0.0 0.00 0.00 0.00 56 1012.1
20260903113419 23 198 0.0 0.0 0.00 0.00 0.00 55 1012.0
20260903112915 23 236 0.0 3.2 0.00 0.00 0.00 55 1012.0
20260903112410 23 180 0.0 3.2 0.00 0.00 0.00 55 1011.6
20260903111909 23 173 0.0 1.6 0.00 0.00 0.00 54 1011.8
20260903111409 23 195 0.0 1.6 0.00 0.00 0.00 54 1011.8
20260903110906 23 180 0.0 1.6 0.00 0.00 0.00 54 1011.8
20260903110401 23 198 0.0 1.6 0.00 0.00 0.00 53 1011.6
20260903105855 24 171 3.2 4.8 0.00 0.00 0.00 53 1011.5
20260903105351 24 145 1.6 6.4 0.00 0.00 0.00 52 1011.4
20260903104850 23 166 3.2 4.8 0.00 0.00 0.00 53 1011.5
20260903104345 23 166 3.2 4.8 0.00 0.00 0.00 53 1011.5
20260903103842 23 165 3.2 4.8 0.00 0.00 0.00 53 1011.8
20260903103338 23 152 4.8 4.8 0.00 0.00 0.00 53 1012.0
20260903102833 24 180 0.0 3.2 0.00 0.00 0.00 53 1011.8
20260903102332 23 157 1.6 3.2 0.00 0.00 0.00 53 1011.9
20260903101827 24 151 1.6 4.8 0.00 0.00 0.00 53 1012.0
20260903101322 24 177 4.8 6.4 0.00 0.00 0.00 52 1011.8
20260903100818 25 144 3.2 6.4 0.00 0.00 0.00 52 1012.1
20260903100317 25 187 6.4 6.4 0.00 0.00 0.00 52 1012.1
20260903095815 25 243 1.6 4.8 0.00 0.00 0.00 51 1012.1
20260903095309 25 157 0.0 3.2 0.00 0.00 0.00 51 1012.3
20260903094804 25 180 1.6 3.2 0.00 0.00 0.00 51 1012.1
20260903094259 25 246 0.0 3.2 0.00 0.00 0.00 52 1012.1
20260903093755 24 279 0.0 0.0 0.00 0.00 0.00 52 1012.0
20260903093250 24 279 0.0 0.0 0.00 0.00 0.00 51 1012.0
20260903092744 24 254 0.0 1.6 0.00 0.00 0.00 50 1011.9
20260903092239 24 90 0.0 0.0 0.00 0.00 0.00 50 1011.9
20260903091738 24 90 0.0 0.0 0.00 0.00 0.00 50 1011.9
20260903091232 25 165 0.0 0.0 0.00 0.00 0.00 49 1011.8
20260903090728 25 165 0.0 0.0 0.00 0.00 0.00 49 1011.8
20260903090226 25 165 0.0 0.0 0.00 0.00 0.00 49 1011.8
20260903085725 25 165 0.0 1.6 0.00 0.00 0.00 48 1011.8
20260903085221 25 225 0.0 4.8 0.00 0.00 0.00 48 1012.0
20260903084718 25 195 0.0 1.6 0.00 0.00 0.00 48 1011.6
20260903084214 25 270 0.0 1.6 0.00 0.00 0.00 48 1011.9
20260903083709 23 341 0.0 3.2 0.00 0.00 0.00 49 1011.9
20260903083203 23 0 0.0 3.2 0.00 0.00 0.00 49 1011.6
20260903082657 24 6 1.6 3.2 0.00 0.00 0.00 48 1011.6
20260903082154 25 8 0.0 0.0 0.00 0.00 0.00 47 1012.0
20260903081648 25 165 0.0 0.0 0.00 0.00 0.00 47 1011.6
20260903081144 25 198 0.0 3.2 0.00 0.00 0.00 46 1012.0
20260903080640 26 206 1.6 4.8 0.00 0.00 0.00 46 1011.8
20260903080137 26 165 1.6 4.8 0.00 0.00 0.00 45 1011.9
20260903075631 26 154 3.2 4.8 0.00 0.00 0.00 45 1011.8
20260903075126 26 160 0.0 4.8 0.00 0.00 0.00 45 1011.8
20260903074625 26 173 1.6 4.8 0.00 0.00 0.00 45 1011.8
20260903074120 26 186 0.0 4.8 0.00 0.00 0.00 45 1011.9
20260903073616 26 161 3.2 4.8 0.00 0.00 0.00 45 1011.9
20260903073111 26 203 1.6 3.2 0.00 0.00 0.00 45 1011.9
20260903072607 25 84 0.0 3.2 0.00 0.00 0.00 46 1011.8
20260903072103 25 127 0.0 3.2 0.00 0.00 0.00 46 1012.0
20260903071559 25 168 0.0 1.6 0.00 0.00 0.00 45 1012.1
20260903071054 26 169 3.2 4.8 0.00 0.00 0.00 46 1011.8
20260903070553 27 188 0.0 1.6 0.00 0.00 0.00 44 1011.8
20260903070050 28 188 0.0 1.6 0.00 0.00 0.00 43 1011.8
20260903065548 28 154 1.6 3.2 0.00 0.00 0.00 42 1011.9
20260903065043 28 173 0.0 1.6 0.00 0.00 0.00 42 1011.9
20260903064543 28 210 3.2 3.2 0.00 0.00 0.00 43 1011.9
20260903064038 28 183 4.8 4.8 0.00 0.00 0.00 43 1012.0
20260903063533 28 180 0.0 4.8 0.00 0.00 0.00 43 1012.1
20260903063029 27 237 0.0 3.2 0.00 0.00 0.00 44 1011.9
20260903062524 27 186 0.0 3.2 0.00 0.00 0.00 45 1011.9
20260903062019 27 180 1.6 4.8 0.00 0.00 0.00 45 1012.0
20260903061515 27 106 0.0 3.2 0.00 0.00 0.00 43 1011.8
20260903061009 27 160 0.0 1.6 0.00 0.00 0.00 43 1012.1
20260903060503 27 157 0.0 0.0 0.00 0.00 0.00 44 1011.9
20260903060004 27 157 0.0 0.0 0.00 0.00 0.00 43 1012.3
20260903055501 27 157 0.0 1.6 0.00 0.00 0.00 43 1012.1
20260903055000 28 176 0.0 3.2 0.00 0.00 0.00 43 1012.2
20260903054455 28 188 0.0 3.2 0.00 0.00 0.00 42 1012.0
20260903053951 28 194 1.6 3.2 0.00 0.00 0.00 42 1012.0
20260903053450 28 229 0.0 4.8 0.00 0.00 0.00 43 1012.3
20260903052948 27 228 3.2 4.8 0.00 0.00 0.00 43 1012.2
20260903052443 27 207 0.0 4.8 0.00 0.00 0.00 43 1012.0
20260903051938 28 216 3.2 4.8 0.00 0.00 0.00 42 1011.9
20260903051433 28 239 3.2 4.8 0.00 0.00 0.00 41 1012.3
20260903050929 28 212 3.2 4.8 0.00 0.00 0.00 41 1012.1
20260903050428 28 250 3.2 4.8 0.00 0.00 0.00 42 1012.3
20260903045922 28 216 0.0 3.2 0.00 0.00 0.00 42 1012.5
20260903045418 28 192 1.6 3.2 0.00 0.00 0.00 41 1012.3
20260903044915 28 199 0.0 3.2 0.00 0.00 0.00 41 1012.4
20260903044415 28 338 4.8 6.4 0.00 0.00 0.00 40 1012.3
20260903043912 29 195 1.6 3.2 0.00 0.00 0.00 40 1012.1
20260903043407 29 157 0.0 3.2 0.00 0.00 0.00 39 1012.2
20260903042905 29 209 1.6 3.2 0.00 0.00 0.00 39 1012.1
20260903042401 28 240 0.0 3.2 0.00 0.00 0.00 39 1012.0
20260903041856 28 246 0.0 3.2 0.00 0.00 0.00 40 1012.1
20260903041352 28 243 0.0 1.6 0.00 0.00 0.00 41 1012.2
20260903040848 28 235 0.0 3.2 0.00 0.00 0.00 41 1012.2
20260903040347 28 240 0.0 1.6 0.00 0.00 0.00 41 1012.0
20260903035843 28 213 3.2 4.8 0.00 0.00 0.00 42 1011.9
20260903035338 28 233 0.0 3.2 0.00 0.00 0.00 44 1011.9
20260903034834 28 254 1.6 3.2 0.00 0.00 0.00 44 1012.1
20260903034329 29 243 0.0 3.2 0.00 0.00 0.00 42 1012.0
20260903033824 28 195 0.0 1.6 0.00 0.00 0.00 42 1011.8
20260903033319 29 237 0.0 3.2 0.00 0.00 0.00 41 1012.0
20260903032818 29 249 0.0 3.2 0.00 0.00 0.00 40 1012.0